Sivas, Turkey

8:41 PM +03 on April 29, 2017 (GMT +0300)
Sivas

Weather History for LTAR - October, 2013

Change the Weather History Date:

Friday, October 25, 2013

  Actual Average Record
Temperature  
Mean Temperature 48 °F -  
Max Temperature 66 °F 53 °F - ()
Min Temperature 30 °F 33 °F - ()
Degree Days  
Heating Degree Days 17    
Moisture  
Dew Point 30 °F    
Average Humidity 58    
Maximum Humidity 87    
Minimum Humidity 16    
Precipitation  
Precipitation 0.00 in 0.05 in - ()
Sea Level Pressure  
Sea Level Pressure 30.23 in    
Wind  
Wind Speed 4 mph ()    
Max Wind Speed 15 mph    
Max Gust Speed -    
Visibility 9.0 miles    
Events      
T = Trace of Precipitation, MM = Missing Value Source: Averaged Metar Reports

Daily Weather History Graph

Daily Weather History Graph

Search for Another Location

Airport or City:

Trip Planner

Search our weather history database for the weather conditions in past years. The results will help you decide how hot, cold, wet, or windy it might be!

Date:

Astronomy

Oct. 25, 2013 Rise Set
Actual Time 6:53 AM EEST 5:39 PM EEST
Civil Twilight 6:25 AM EEST 6:06 PM EEST
Nautical Twilight 5:54 AM EEST 6:38 PM EEST
Astronomical Twilight 5:22 AM EEST 7:09 PM EEST
Moon 10:39 PM EEST (10/25) 12:20 PM EEST (10/25)
Length of Visible Light 11h 41m
Length of Day
10h 45m
Waning Gibbous, 65% of the Moon is Illuminated
Oct 25
Waning Gibbous
Oct 27
Last Quarter
Nov 3
New
Nov 10
First Quarter
Nov 17
Full

Hourly Weather History & Observations

Time (EEST) Temp. Windchill Dew Point Humidity Pressure Visibility Wind Dir Wind Speed Gust Speed Precip Events Conditions
3:50 AM 35.6 °F - 28.4 °F 75% 30.24 in - Calm Calm - N/A   Clear
4:50 AM 32.0 °F - 28.4 °F 87% 30.24 in - Calm Calm - N/A   Clear
5:50 AM 30.2 °F - 26.6 °F 86% 30.24 in - Variable 1.2 mph - N/A   Clear
6:50 AM 32.0 °F - 28.4 °F 87% 30.24 in - North 2.3 mph - N/A   Clear
7:50 AM 35.6 °F - 28.4 °F 75% 30.27 in - Calm Calm - N/A   Clear
8:50 AM 44.6 °F 43.1 °F 32.0 °F 61% 30.27 in - ENE 3.5 mph - N/A   Clear
9:00 AM 38 °F - 31 °F 66%  in 9 mi WSW 1.2 mph - -  
9:50 AM 48.2 °F - 30.2 °F 50% 30.27 in - East 6.9 mph - N/A   Clear
10:50 AM 50.0 °F - 30.2 °F 47% 30.27 in - ENE 4.6 mph - N/A   Clear
11:50 AM 53.6 °F - 28.4 °F 38% 30.27 in - Variable 3.5 mph - N/A   Clear
12:50 PM 55.4 °F - 32.0 °F 41% 30.24 in - NW 4.6 mph - N/A   Clear
1:50 PM 57.2 °F - 28.4 °F 33% 30.24 in - NNW 5.8 mph - N/A   Clear
2:50 PM 59.0 °F - 24.8 °F 27% 30.21 in - North 8.1 mph - N/A   Clear
3:00 PM 66 °F - 30 °F 16%  in 9 mi WNW 3.5 mph - -  
3:50 PM 59.0 °F - 24.8 °F 27% 30.21 in - NNW 10.4 mph - N/A   Clear
4:50 PM 55.4 °F - 26.6 °F 33% 30.21 in - NNW 15.0 mph - N/A   Clear
5:50 PM 50.0 °F - 30.2 °F 47% 30.21 in - NNW 11.5 mph - N/A   Clear
6:50 PM 46.4 °F 41.5 °F 32.0 °F 57% 30.21 in - North 10.4 mph - N/A   Clear
7:50 PM 44.6 °F 40.7 °F 33.8 °F 66% 30.21 in - NW 6.9 mph - N/A   Clear
8:50 PM 41.0 °F 36.4 °F 33.8 °F 76% 30.21 in - North 6.9 mph - N/A   Clear
9:00 PM 48 °F - 34 °F 47%  in 9 mi NE 1.2 mph - -  
9:50 PM 41.0 °F 36.4 °F 33.8 °F 76% 30.21 in - NNW 6.9 mph - N/A   Clear
10:50 PM 41.0 °F 36.4 °F 35.6 °F 81% 30.21 in - North 6.9 mph - N/A   Clear
11:50 PM 39.2 °F 32.5 °F 33.8 °F 81% 30.21 in - NNW 10.4 mph - N/A   Clear